Theta_e
352 352 353 353 355 351 344 338 319 327 325 316 319 320 322 332 335 332 330 334 330 338 336 337 335 336 335 330 332 335 336 333 333 321 321 339 353 354 354 354 355 355 356 359 362 362 363 364 364 365 365 366 365 364 364 364 364 364 364 364 363 364 363 363 364 364 364 365 365 364 364 364 364 363 363 362 362 361 361 362 362 362 363 362 361 363 363 363 363 363 363 362 362 361 361 361 362
352 351 350 351 348 345 333 339 323 322 321 317 321 324 325 331 331 329 329 332 333 334 336 336 338 338 338 337 337 338 336 340 340 338 343 349 353 351 352 353 354 352 354 357 361 361 361 361 364 363 364 365 365 365 364 365 365 363 364 364 364 364 363 363 363 364 364 365 365 364 364 364 363 363 362 362 362 361 362 362 362 363 362 362 363 362 362 362 363 363 363 362 362 361 362 361 362
348 348 349 349 347 342 343 338 318 320 315 312 318 323 332 327 328 330 334 337 337 335 337 338 338 337 336 336 332 332 329 342 341 343 343 349 344 348 353 353 352 351 352 357 358 359 360 362 364 365 365 365 364 365 365 364 364 364 364 364 364 364 364 363 363 364 364 365 364 363 364 363 363 363 363 363 363 363 363 362 362 362 363 362 361 364 363 361 360 361 362 361 362 361 361 363 363
350 350 346 344 335 343 331 328 322 319 315 318 319 326 329 330 328 335 338 338 336 336 338 334 331 338 336 331 333 339 336 337 343 342 341 345 346 350 352 352 354 353 354 355 357 360 362 365 365 365 365 365 365 366 365 365 365 364 364 364 364 364 364 363 363 364 364 364 363 363 363 363 362 363 363 364 363 362 363 362 362 363 363 363 362 362 362 362 362 362 362 362 362 362 363 362 362
357 351 348 341 336 327 328 324 324 323 315 322 318 327 330 334 333 338 339 338 335 337 335 335 334 339 339 336 339 332 333 342 344 347 344 349 353 352 352 352 351 352 353 357 359 362 362 365 365 365 364 365 366 366 365 365 365 365 364 364 364 364 364 363 364 363 363 363 363 363 363 362 362 362 363 363 363 363 363 362 361 362 363 362 362 362 363 361 362 361 361 362 364 363 363 362 361
356 353 349 348 336 345 332 321 320 319 326 329 322 326 333 335 336 337 334 336 337 340 337 336 334 331 332 335 339 334 340 333 343 346 347 347 354 355 351 351 351 351 354 359 361 362 363 366 366 365 365 365 365 365 365 366 365 364 364 364 364 364 364 364 363 363 363 363 363 363 363 362 362 363 363 364 364 364 364 364 364 363 362 362 362 361 362 362 362 362 362 363 362 362 362 362 362
348 346 342 342 340 337 321 321 320 323 325 331 328 327 332 335 336 337 334 333 337 338 340 336 338 336 332 337 340 343 345 345 343 347 350 350 351 352 352 351 350 351 355 359 362 362 364 366 366 365 365 365 364 364 365 365 365 364 365 364 364 364 363 363 363 363 363 363 363 363 363 363 363 363 363 363 363 364 363 363 364 363 362 361 362 362 362 362 363 363 363 362 362 362 362 362 363
354 339 337 330 327 329 322 322 324 324 332 332 335 331 335 335 337 335 334 332 330 331 336 338 338 335 332 340 331 339 344 348 347 351 354 352 352 351 351 350 349 351 355 359 362 363 369 366 365 364 365 365 365 365 365 365 364 364 364 364 364 363 363 362 364 364 364 363 363 363 363 363 363 363 363 363 363 364 364 363 363 363 362 362 362 362 363 363 362 362 362 362 362 362 362 362 362
350 341 347 332 323 327 322 322 324 332 329 336 334 336 339 337 337 337 333 334 336 335 334 336 338 329 330 333 333 339 343 348 350 351 351 351 350 350 349 349 348 351 355 359 362 363 363 365 364 364 365 365 365 366 366 365 364 364 363 363 363 362 363 363 363 363 363 363 363 363 364 363 363 363 363 363 364 364 363 364 363 362 362 362 362 363 362 362 362 362 362 362 362 362 362 362 362
343 340 332 328 326 317 320 324 322 327 329 335 334 336 339 339 336 338 336 333 334 334 335 339 339 333 336 332 335 339 341 348 348 349 350 349 349 349 348 348 351 353 357 358 360 362 362 368 365 366 365 365 366 366 365 365 364 363 362 363 363 362 362 363 363 363 363 363 364 363 362 363 363 363 363 363 364 364 364 364 363 362 362 362 362 363 362 362 362 362 362 363 363 362 361 360 362
333 342 339 324 320 318 316 320 326 329 330 334 336 338 341 342 338 338 340 336 338 336 338 339 334 333 335 333 336 345 347 347 346 344 348 348 349 348 347 350 352 354 355 357 359 362 363 363 367 365 365 366 366 365 364 364 363 363 362 363 363 363 362 362 363 363 363 363 364 364 362 363 364 363 363 364 364 364 363 363 362 363 362 362 362 362 362 362 362 363 363 362 362 361 361 361 362
332 336 333 320 320 319 323 321 324 329 332 333 332 338 341 339 338 335 337 333 333 334 335 339 333 338 332 333 335 342 345 345 345 346 346 347 346 347 348 349 352 354 356 358 360 361 362 363 363 366 365 366 365 365 364 364 363 363 363 363 363 363 363 363 363 363 364 364 364 363 363 363 363 364 363 363 363 363 363 362 363 363 363 363 362 362 362 362 362 362 362 362 362 362 361 361 362
333 335 329 323 322 325 325 323 326 328 330 330 333 336 342 338 337 338 337 335 334 332 336 343 341 339 330 332 339 343 342 344 345 346 346 346 346 347 347 348 350 353 357 359 359 360 362 362 362 363 364 365 365 364 364 364 363 363 363 363 363 364 364 363 364 365 365 365 364 364 364 363 363 363 363 363 363 363 363 362 362 363 364 364 364 363 362 362 362 362 362 362 361 360 360 361 362
335 336 331 321 332 327 325 327 327 324 326 330 338 341 343 339 338 339 337 333 334 335 341 344 342 339 334 336 336 338 341 345 344 345 346 346 346 346 346 347 349 352 356 359 359 360 360 361 362 362 363 362 362 363 364 364 363 363 363 364 364 364 364 364 365 365 365 365 364 364 365 365 364 364 364 363 363 364 363 363 362 362 364 364 363 362 362 362 362 362 362 361 361 361 360 361 361
335 342 333 326 325 327 330 322 322 324 326 333 336 338 340 341 342 339 337 333 335 342 343 346 344 338 328 332 331 337 341 344 345 345 345 345 345 345 345 346 349 352 355 357 358 358 359 360 361 362 364 362 362 362 363 362 364 364 364 364 364 364 365 365 365 364 365 364 364 363 364 364 364 364 364 365 364 364 364 363 363 363 363 363 362 361 362 362 362 363 362 362 361 361 361 361 360
341 339 335 324 323 323 327 325 327 326 327 336 338 342 339 339 344 337 339 339 338 343 344 339 344 339 338 335 337 341 344 345 344 345 345 344 344 344 344 345 347 351 355 357 357 359 359 360 361 362 362 362 362 361 362 363 364 365 365 364 364 365 365 364 365 364 364 363 365 364 364 364 363 362 366 364 365 365 364 362 363 364 364 363 362 362 363 363 363 362 362 362 361 361 361 362 361
346 342 330 326 319 322 322 326 327 322 329 336 341 340 336 335 341 341 343 343 336 338 342 342 341 344 339 339 343 345 345 345 345 344 343 343 343 341 343 345 346 349 353 356 357 358 359 359 360 360 361 361 361 361 362 363 364 367 365 365 365 365 365 364 364 363 363 364 365 365 364 362 364 363 363 362 364 363 365 364 364 364 364 363 362 363 364 363 364 362 362 361 361 360 360 361 362
340 331 326 323 324 321 330 328 327 330 330 334 338 339 336 332 336 338 341 339 339 339 338 341 344 342 344 344 346 347 345 343 344 342 341 340 341 339 340 342 344 345 349 353 357 357 359 360 359 360 360 361 361 361 362 363 365 365 365 365 364 364 364 363 364 363 365 364 365 365 366 365 363 364 365 365 364 365 364 365 364 365 364 364 363 364 364 365 364 363 362 362 360 360 360 361 362
331 330 330 322 325 328 334 334 334 332 332 335 337 336 339 334 337 338 335 335 336 335 337 339 340 340 343 344 345 345 343 343 343 342 340 339 339 338 339 341 343 345 347 351 354 356 358 359 360 359 359 360 360 360 360 363 364 365 365 364 363 364 365 364 364 363 364 365 366 365 368 367 363 364 364 364 364 365 364 365 365 365 365 364 364 364 365 365 365 364 362 362 361 360 362 370 364
333 331 324 325 332 331 337 337 336 335 338 333 335 336 337 335 337 341 336 333 335 334 333 336 337 336 339 341 343 343 342 342 343 342 341 340 340 340 339 339 342 345 348 350 354 357 357 356 359 362 362 360 360 358 359 362 363 365 363 362 363 364 364 364 364 364 366 366 363 362 361 364 364 365 365 365 364 363 363 364 365 364 365 365 364 364 364 364 364 363 362 361 361 361 364 361 358
333 330 325 328 335 332 337 339 341 337 338 339 337 338 334 335 339 339 335 332 333 336 338 337 337 337 339 341 342 342 341 342 343 343 342 341 341 341 340 341 342 346 349 352 353 356 358 358 358 360 362 361 360 358 359 359 361 361 361 360 362 363 364 365 363 364 365 365 363 363 360 363 363 364 364 363 361 363 362 361 361 361 362 363 364 363 363 362 362 361 362 362 362 363 359 359 361
331 328 331 333 337 332 338 342 339 336 338 341 336 332 334 338 337 336 336 331 330 335 340 342 341 340 339 339 341 342 341 341 342 342 342 341 340 340 341 342 344 347 350 350 352 354 357 357 358 359 360 362 361 358 359 361 363 360 361 361 361 362 363 364 363 365 365 365 363 362 360 363 361 362 363 364 364 364 362 361 364 368 364 363 364 363 361 361 359 360 360 361 362 362 360 360 362
322 326 331 332 338 334 341 338 339 339 336 341 336 339 340 340 333 339 338 336 340 343 342 343 342 343 342 342 341 340 340 340 342 342 343 341 341 341 341 341 341 343 347 349 352 353 355 357 358 359 359 361 362 360 361 361 360 361 362 361 359 359 361 362 364 363 365 366 363 361 360 360 358 363 362 363 362 363 362 364 362 363 362 362 362 362 360 359 361 361 360 361 363 361 360 365 363
328 324 333 337 335 333 339 337 338 340 335 337 339 337 336 334 331 337 339 339 340 344 343 345 344 344 343 341 341 340 340 341 341 343 344 343 343 341 342 340 341 345 347 348 350 351 354 355 358 358 360 361 362 360 360 359 361 360 359 362 362 360 361 362 360 362 365 365 363 360 373 364 365 360 362 362 359 361 361 359 361 362 364 361 362 363 358 357 360 362 361 358 361 363 365 363 364
322 322 328 334 338 337 337 339 338 337 341 344 342 337 335 339 335 337 337 338 342 343 347 344 343 343 342 340 339 340 340 341 341 342 343 343 343 343 342 342 342 343 345 348 350 350 351 355 358 358 360 360 360 359 357 357 357 358 358 358 360 363 359 360 359 359 358 360 362 362 366 360 357 361 358 362 359 360 359 358 358 359 360 360 359 358 358 356 357 359 359 360 361 362 364 361 362
325 323 326 329 334 338 337 335 338 335 339 339 338 335 338 338 340 335 341 338 343 343 342 343 342 341 340 339 340 338 339 339 340 340 341 342 342 342 341 340 342 341 345 347 348 349 350 354 355 357 358 360 359 357 359 359 361 359 360 357 358 361 356 355 360 355 359 360 359 362 365 359 357 357 357 362 358 356 355 353 354 355 358 361 357 355 359 359 357 356 359 359 358 361 361 360 361
327 325 324 322 325 334 334 333 333 336 340 343 334 333 337 336 335 330 343 344 345 342 340 343 341 340 341 340 340 339 338 339 339 339 340 340 342 341 341 340 340 342 345 346 347 348 351 351 352 358 360 364 360 356 360 361 362 361 360 357 358 359 358 362 359 357 356 356 362 363 365 363 358 361 359 358 356 355 354 354 353 354 356 357 356 357 357 357 359 359 361 361 360 361 360 362 360
322 324 325 325 324 326 329 332 333 338 331 334 335 333 337 336 335 333 339 342 344 344 338 340 340 340 341 341 340 341 339 340 339 338 338 337 339 340 341 340 340 342 342 344 347 349 348 349 350 355 358 361 362 357 361 359 359 358 361 362 356 362 365 359 356 359 367 365 366 370 370 372 364 363 359 356 358 357 355 354 356 352 352 355 357 358 359 356 356 357 359 361 361 361 359 360 361
320 322 318 321 323 322 326 327 331 333 332 336 335 330 330 331 331 336 340 342 343 340 338 339 339 340 341 342 341 341 340 341 340 337 338 338 341 342 341 342 340 342 343 344 345 347 346 346 350 354 356 360 358 354 355 357 357 356 359 358 360 362 362 361 362 359 367 367 373 371 373 371 373 368 369 367 364 359 359 356 353 353 355 357 356 355 356 357 359 358 357 362 360 358 356 356 359
320 319 316 315 316 316 322 326 330 331 331 333 332 318 323 328 332 336 339 341 342 337 337 338 338 339 340 341 341 341 341 341 340 338 339 339 342 342 342 342 342 342 341 345 344 345 346 347 351 353 356 356 359 355 359 357 358 358 360 358 364 364 359 364 360 366 365 367 369 373 371 373 366 365 366 367 367 366 364 367 363 359 354 353 357 355 356 356 355 355 357 360 358 356 354 356 358
311 315 315 310 311 312 321 323 326 328 333 334 332 318 323 327 331 335 339 339 336 336 335 337 338 339 338 340 341 340 341 342 340 338 340 340 342 343 343 342 341 343 341 342 342 345 345 347 350 351 358 356 356 358 357 359 359 357 356 358 361 365 362 360 359 364 363 363 366 369 372 373 371 363 366 369 366 365 362 363 364 365 360 359 356 355 357 355 359 359 364 358 354 356 356 359 356
313 308 307 311 310 313 318 324 325 323 331 333 329 319 325 327 331 335 339 340 339 335 336 336 337 339 339 340 340 340 341 341 341 338 340 340 343 342 343 342 341 342 342 344 342 344 342 347 351 352 356 355 358 358 360 359 358 360 359 361 360 366 360 358 357 358 359 362 364 369 372 371 371 369 367 368 362 362 366 363 363 370 369 370 369 367 365 364 366 362 363 360 359 352 358 354 359
311 308 307 308 311 312 313 319 324 327 329 330 327 319 325 325 332 334 337 338 338 337 337 336 337 338 339 339 339 340 341 341 341 339 339 340 342 343 344 344 341 342 343 343 342 344 344 347 350 351 353 353 356 353 361 361 365 363 362 358 355 365 358 358 360 359 360 362 363 364 371 372 371 373 370 370 374 366 364 365 367 366 371 370 373 369 366 364 363 360 367 367 362 359 349 350 352
306 309 306 310 310 311 309 318 324 327 329 324 327 323 324 327 330 333 337 336 337 337 336 337 336 337 339 339 338 339 340 340 339 340 339 341 343 343 344 348 343 342 345 343 343 342 342 346 346 351 353 352 357 357 362 359 362 365 361 361 363 360 354 356 358 357 359 362 367 366 371 373 375 374 373 372 372 364 367 365 364 368 368 371 369 368 367 366 366 363 362 366 365 366 354 350 348
305 306 306 307 311 312 311 312 321 326 327 324 325 323 324 326 329 332 336 336 336 336 333 337 336 336 338 338 338 339 340 339 340 342 341 341 343 343 343 345 343 343 343 343 344 346 347 346 350 355 354 353 356 359 364 362 363 364 359 362 358 365 364 359 361 359 358 362 363 368 372 372 373 374 375 373 366 364 364 367 368 369 370 371 368 365 364 364 363 364 360 363 365 362 364 357 355
307 308 307 308 308 310 310 315 323 325 325 323 323 320 322 325 328 333 335 336 335 335 337 338 336 337 336 338 338 338 339 340 342 343 343 343 343 343 343 344 344 344 344 346 347 344 350 346 353 354 356 353 359 361 362 358 358 357 353 356 355 359 360 359 361 359 356 360 365 366 370 373 374 376 373 371 368 371 368 369 368 367 370 372 367 365 364 365 365 364 361 360 363 365 365 360 358
308 309 308 308 309 311 315 316 321 325 322 324 324 323 324 325 326 330 332 336 334 334 336 337 338 343 339 337 338 339 339 340 343 343 343 344 344 343 344 344 344 345 346 346 346 343 351 343 353 352 355 357 360 358 358 356 355 354 353 349 350 350 359 359 357 355 355 357 365 368 371 370 373 375 374 375 373 370 367 368 366 367 370 372 373 364 367 365 366 366 368 369 363 360 358 357 353
308 306 306 307 309 308 314 315 319 324 319 320 324 322 322 324 326 328 332 333 331 332 333 335 338 338 338 337 338 339 340 342 342 342 343 343 343 343 343 345 345 344 345 345 346 343 350 343 352 352 354 358 360 360 359 358 357 353 352 349 342 348 354 354 356 358 350 355 368 370 370 370 372 373 375 373 375 369 364 366 365 366 367 369 371 369 367 366 368 366 366 367 366 361 357 351 350
309 306 306 306 308 311 314 315 317 320 319 316 323 320 322 324 328 330 330 330 333 333 333 335 338 337 339 337 336 339 339 340 340 341 343 342 343 343 343 344 343 344 344 343 347 346 351 343 353 353 354 357 359 360 360 356 355 356 353 352 347 343 350 352 349 355 356 356 361 368 371 372 372 372 373 373 371 371 368 367 364 365 364 367 370 369 368 369 369 365 363 364 363 366 364 359 361
306 306 304 303 309 308 306 312 315 318 318 316 318 323 321 325 326 327 330 329 331 333 335 339 343 339 338 340 339 339 339 340 339 340 341 342 343 343 344 344 344 345 346 345 345 346 349 347 355 354 355 357 358 361 360 358 358 359 360 359 356 351 346 353 361 356 360 357 358 363 371 372 371 369 368 368 370 370 368 366 365 364 365 366 369 369 368 367 368 367 364 367 364 356 350 349 354
307 306 306 305 307 309 310 311 314 316 319 320 318 315 320 321 321 323 329 330 330 332 333 340 343 344 343 344 343 343 342 341 340 340 341 341 342 342 344 345 344 344 344 346 346 344 347 349 357 357 355 358 359 362 360 360 361 360 360 362 358 363 355 353 352 352 355 355 358 360 363 370 370 370 369 370 369 371 368 367 366 365 365 365 367 368 369 367 366 363 365 365 362 360 348 354 353
306 307 307 307 309 309 311 312 311 310 310 317 315 307 309 321 321 322 324 326 328 332 335 338 339 340 339 339 340 340 341 345 343 341 341 341 342 344 346 346 344 344 346 347 347 347 351 351 357 359 356 361 359 362 361 359 358 358 356 356 352 356 356 350 351 350 346 348 347 355 360 361 364 368 372 371 370 370 369 368 368 365 365 366 367 366 367 366 366 364 367 365 362 367 363 351 347
303 305 309 308 308 309 309 309 310 306 305 312 318 307 304 314 317 321 324 324 325 331 334 334 338 338 338 339 338 337 337 344 342 343 342 341 342 344 345 346 345 344 346 348 349 351 353 354 358 360 357 361 360 362 361 359 357 358 355 352 350 349 356 354 359 353 352 352 355 358 362 363 368 364 365 369 369 371 373 372 370 367 367 368 368 368 366 363 363 362 363 362 362 372 370 360 356
302 310 310 309 307 306 307 308 308 306 313 315 316 313 307 307 313 319 324 321 322 325 332 333 336 337 339 338 337 339 339 342 343 342 342 343 343 343 344 346 346 344 346 348 350 352 354 357 358 359 360 361 361 363 362 359 356 356 356 352 353 350 349 357 358 361 362 360 357 358 358 360 366 368 369 372 371 371 372 373 373 369 367 367 370 368 366 364 364 366 364 366 371 378 371 371 359
307 311 311 309 308 307 306 306 306 307 307 305 309 314 307 307 313 319 320 318 320 324 326 331 334 337 338 340 338 339 339 339 341 343 341 341 343 344 346 346 347 347 348 348 351 354 356 359 360 361 360 361 362 363 361 359 358 358 355 352 354 354 352 357 358 359 365 367 360 362 365 360 366 368 371 368 371 371 371 373 373 373 369 369 372 367 364 362 364 368 369 373 370 369 369 370 370
310 312 312 311 309 308 307 305 304 305 304 301 307 311 305 306 312 313 318 318 317 320 325 329 333 335 336 337 338 338 340 344 342 344 345 344 344 344 346 348 349 348 349 353 351 354 355 359 361 360 361 360 362 362 361 360 360 360 356 353 353 353 354 354 355 355 361 363 364 362 367 371 362 365 367 371 372 372 371 372 370 368 368 361 364 362 364 364 367 372 370 372 368 370 377 373 369
313 311 309 308 307 306 307 305 304 302 297 302 308 311 309 302 310 312 312 313 321 320 324 331 332 333 335 337 336 335 338 342 341 341 345 346 345 346 346 347 350 350 351 351 351 354 355 357 361 360 361 359 362 363 361 359 360 359 358 355 354 354 354 355 353 357 356 360 358 360 360 370 365 363 362 367 369 368 371 371 365 366 366 369 371 370 368 361 362 366 367 372 371 368 370 371 369
311 308 306 304 303 305 304 303 304 296 294 302 308 309 311 301 307 313 317 320 320 324 323 331 331 334 336 335 335 336 338 340 341 344 344 346 348 347 346 347 349 351 351 351 351 353 356 357 360 360 362 359 361 363 361 358 359 359 359 357 355 355 355 351 352 356 354 356 355 358 361 365 367 366 368 365 363 362 369 371 371 369 370 371 370 371 371 367 364 364 370 371 371 373 374 378 367
308 307 305 298 297 299 294 298 294 294 294 301 305 307 304 304 310 314 317 319 320 331 326 327 331 331 335 338 338 337 341 343 343 344 344 345 347 346 344 348 352 352 351 352 352 353 355 359 361 360 360 361 360 364 360 360 359 358 358 357 357 357 356 354 354 355 359 357 356 357 362 361 364 364 366 363 363 364 369 371 369 373 373 368 374 373 372 367 379 374 369 367 369 370 373 371 369
305 303 301 297 293 293 290 294 297 297 300 304 303 306 300 306 310 315 314 318 322 323 334 332 331 335 334 334 337 337 340 342 343 343 344 345 347 347 348 349 352 352 351 352 352 354 357 357 361 359 360 361 361 364 360 359 359 360 360 359 357 358 357 356 356 352 358 361 361 358 356 358 362 360 360 363 362 362 366 369 372 370 374 374 375 375 376 372 375 377 375 368 364 369 371 371 371
305 307 303 300 299 295 292 295 292 294 297 301 305 300 298 298 303 313 316 318 322 323 325 326 331 332 336 336 339 338 338 340 342 343 342 344 346 348 348 350 352 353 351 350 352 354 357 359 362 361 361 361 362 363 361 359 358 360 360 360 360 359 357 357 356 354 355 360 360 359 360 358 360 360 360 364 366 368 366 369 370 369 371 374 373 374 371 375 374 372 378 378 372 372 370 372 370
307 307 307 301 300 304 296 300 299 298 298 297 301 299 303 303 314 315 318 320 321 322 324 333 332 332 333 335 336 335 335 337 341 341 345 347 348 349 348 347 349 352 354 352 353 355 356 358 362 363 362 361 361 363 361 360 358 359 361 361 360 360 360 358 359 359 359 360 362 361 362 362 360 363 363 365 363 367 366 367 369 368 371 370 373 373 372 370 373 373 372 374 370 366 370 369 372
305 305 300 302 309 306 301 302 304 304 301 297 304 302 304 309 310 315 316 317 319 321 322 322 328 335 337 335 335 336 337 339 341 343 345 348 348 354 356 352 349 348 352 353 355 356 356 359 361 363 363 362 362 363 362 361 361 358 360 361 361 361 360 358 356 358 352 358 362 363 362 360 361 366 363 362 363 365 370 366 366 366 371 371 371 372 371 372 373 371 369 371 369 366 371 370 370
306 302 305 310 311 309 303 296 300 298 295 299 302 300 302 301 298 312 315 315 317 319 320 327 332 335 331 335 336 334 335 338 340 343 346 350 353 354 353 352 352 351 352 354 357 357 358 359 361 362 363 362 362 362 361 362 361 359 360 360 362 361 358 356 356 357 356 357 360 363 360 361 358 357 360 357 361 363 367 369 368 368 368 368 368 368 370 370 372 370 370 371 370 373 373 371 371
306 304 313 304 298 297 303 301 293 294 294 297 302 303 302 304 304 308 310 313 315 319 320 321 329 332 332 333 336 338 338 337 341 342 346 349 351 351 350 351 351 353 356 355 358 357 357 359 360 363 362 362 362 360 363 364 362 359 360 360 361 361 359 357 359 361 360 358 355 360 359 359 359 358 361 365 362 363 364 366 368 367 368 368 369 368 370 370 370 369 368 368 370 372 372 371 372
311 311 307 311 307 303 299 301 302 301 296 297 298 303 300 306 308 310 310 314 317 318 319 319 322 333 331 335 335 335 339 339 340 342 344 346 347 349 351 351 350 349 351 352 355 356 355 356 359 362 363 364 363 362 364 362 361 362 362 362 362 361 363 363 362 362 361 359 359 358 359 356 359 358 358 365 363 362 363 362 363 362 362 363 366 366 368 369 370 369 366 363 365 369 367 369 366
304 304 303 305 305 309 307 306 302 299 297 297 298 297 303 310 313 312 313 314 316 317 320 323 328 331 332 333 334 337 338 339 339 340 343 344 344 346 349 352 353 354 356 356 353 355 355 357 359 361 362 362 361 361 361 362 364 362 363 362 361 363 362 362 361 363 363 362 361 361 359 358 361 359 358 357 362 362 364 364 361 363 362 362 365 365 365 367 368 369 369 368 368 366 366 367 369
306 304 302 304 302 300 298 297 306 303 299 296 298 297 306 312 316 315 315 316 316 318 322 322 323 330 330 332 334 337 336 337 338 341 343 344 345 347 349 350 349 350 354 351 352 352 356 357 359 361 362 362 361 360 362 363 363 361 361 361 361 361 362 362 360 361 361 362 362 362 363 363 360 362 360 356 360 361 364 364 363 363 363 363 366 367 364 366 366 367 367 364 365 369 366 366 368
Wind_Speed
8 9 9 10 8 7 6 5 5 4 5 7 3 4 2 5 4 8 8 9 7 3 9 9 8 2 2 8 11 12 11 5 4 3 8 8 12 13 14 19 19 17 16 13 13 13 12 13 14 15 16 16 16 16 15 15 15 15 15 15 14 14 14 13 13 13 13 12 12 12 13 13 13 13 13 13 12 12 13 12 12 11 12 13 13 14 15 15 15 13 12 12 11 11 11 11 11
8 10 9 10 8 7 5 5 4 1 5 6 5 4 5 5 6 7 10 8 4 7 10 8 5 8 14 16 14 15 15 13 16 15 13 15 16 17 20 20 19 19 16 14 13 13 13 14 14 16 16 16 15 15 16 15 15 14 14 14 14 13 13 13 13 13 12 12 12 13 13 13 13 13 13 12 12 12 13 12 11 12 13 13 13 14 14 14 14 13 12 12 11 12 11 11 11
9 10 6 7 4 5 0 3 5 2 5 6 3 4 2 6 5 8 7 4 9 12 12 9 8 9 12 10 12 14 11 18 22 20 14 19 15 13 21 20 19 19 18 14 14 13 12 13 13 15 17 16 16 16 16 15 15 14 14 14 14 13 13 12 12 12 12 12 12 13 13 13 13 14 13 12 12 12 12 12 12 13 13 13 13 14 14 13 14 14 13 13 13 13 12 11 11
8 7 5 5 3 4 3 2 6 7 4 3 3 5 7 6 7 8 6 8 12 12 13 10 9 7 9 12 16 18 16 13 18 20 13 15 13 18 19 20 20 16 15 13 14 13 12 14 14 16 16 17 16 16 15 15 14 14 13 13 13 13 12 12 13 13 13 13 13 13 13 13 13 13 13 12 12 12 12 12 12 13 13 13 13 14 13 13 13 13 13 13 14 13 12 11 11
7 5 4 3 4 4 2 2 4 2 5 2 1 6 7 6 9 11 10 13 14 12 11 8 9 8 10 13 9 8 12 19 17 16 14 14 19 18 20 20 17 16 15 15 15 14 14 17 16 16 17 17 16 16 16 15 14 14 14 13 13 13 12 12 12 12 12 12 13 12 12 12 12 12 12 12 12 12 12 12 13 12 12 13 12 13 13 13 13 13 13 13 14 13 12 11 11
8 9 4 1 2 1 4 5 3 4 8 5 3 5 8 13 11 11 14 14 13 7 6 12 9 12 8 10 9 13 18 12 16 14 18 18 21 20 21 17 17 16 16 15 15 12 13 16 17 17 17 16 16 15 15 15 14 14 13 12 13 12 12 12 12 12 12 12 12 12 12 12 12 12 12 12 12 12 12 12 12 12 12 12 12 12 12 12 11 12 13 13 12 13 12 11 11
6 5 4 2 2 3 4 5 6 4 3 3 1 7 8 10 11 10 14 14 8 12 8 11 15 14 11 9 14 12 13 19 15 16 17 22 23 21 19 17 17 18 18 15 14 14 16 17 17 18 18 17 17 16 15 15 15 14 13 12 13 12 12 12 12 12 12 12 12 12 12 11 11 11 12 12 12 12 11 12 12 12 11 12 12 12 12 12 12 12 12 12 12 12 12 11 11
7 5 3 5 3 4 5 5 7 3 3 3 4 6 9 12 12 13 10 14 12 7 11 11 8 11 15 12 12 15 18 14 22 23 23 19 22 21 20 18 18 18 17 16 14 13 18 19 19 20 19 18 17 16 16 15 15 14 13 13 12 12 12 12 12 12 12 12 11 11 11 10 11 12 12 12 12 11 11 12 12 12 12 11 12 12 12 12 12 12 12 11 11 11 11 11 10
6 7 3 3 5 1 4 5 6 4 3 2 4 4 7 11 14 14 13 6 5 15 10 11 12 12 12 16 13 14 16 23 25 28 25 24 22 21 16 19 18 17 18 16 15 15 15 18 19 19 19 18 18 17 16 16 15 14 14 14 13 13 13 12 12 12 11 11 11 11 11 10 10 11 11 11 11 11 11 11 11 12 12 11 11 11 12 12 12 12 12 12 11 10 10 10 9
5 4 1 2 3 6 5 5 6 3 1 3 5 4 9 7 7 9 11 12 8 9 11 11 10 14 16 17 15 14 16 24 26 24 23 23 21 19 20 20 20 21 18 16 14 14 13 18 18 18 18 18 17 17 16 15 15 14 14 13 13 13 12 12 11 11 11 11 11 11 11 11 11 11 11 11 10 11 11 11 11 11 13 11 11 11 12 12 12 12 12 11 10 10 10 10 9
3 1 4 3 1 4 5 6 4 4 5 3 6 8 6 5 7 5 7 10 8 12 13 14 15 16 14 16 10 14 22 24 24 24 22 21 21 20 19 20 19 20 19 18 16 14 14 13 19 18 18 17 17 17 16 15 15 14 13 13 13 12 12 12 11 11 12 11 11 10 11 11 11 11 11 11 10 11 11 11 11 11 12 12 12 12 12 11 11 11 11 11 10 10 9 9 8
6 2 1 3 5 3 3 3 4 3 3 2 3 8 6 6 9 11 8 12 12 12 13 11 11 15 16 16 12 16 22 22 22 22 21 21 18 19 19 16 19 19 20 18 17 15 14 13 12 16 17 17 17 16 15 15 15 14 14 13 13 12 12 12 12 11 12 11 11 11 11 11 11 11 11 11 10 11 11 11 10 11 11 11 12 12 11 11 11 11 10 10 10 9 8 9 8
7 3 0 1 6 3 5 2 3 2 1 7 9 9 7 3 8 9 8 15 12 15 10 10 16 12 15 14 12 18 21 21 21 21 21 18 18 17 17 18 19 20 19 18 17 16 15 13 12 12 14 18 16 16 16 15 15 15 13 13 13 13 13 13 12 12 11 11 11 11 11 11 11 11 11 11 11 10 11 10 11 10 12 11 12 11 11 11 11 11 11 10 10 9 8 8 6
5 1 2 3 4 3 4 2 3 2 4 6 6 6 8 8 14 13 12 13 12 9 10 13 11 14 16 15 15 15 17 21 22 20 17 19 17 17 19 17 20 19 18 17 17 16 15 14 13 12 13 12 12 13 15 15 15 15 14 13 13 13 13 13 12 12 12 12 12 11 11 11 11 11 11 11 11 11 10 10 11 11 11 11 11 11 11 11 11 10 10 9 9 9 8 7 5
5 4 2 2 4 3 1 2 2 6 5 6 5 7 4 2 13 10 13 14 11 9 11 10 12 12 12 17 15 15 19 22 22 20 19 19 19 19 19 17 18 18 17 17 16 15 15 14 14 12 12 11 11 9 8 12 15 15 14 13 13 13 13 13 13 13 13 12 12 12 11 11 11 11 11 11 11 11 11 10 10 10 10 11 10 10 11 10 10 10 10 9 9 8 8 6 4
2 2 0 2 3 4 2 6 6 5 4 5 3 7 8 9 16 13 8 10 12 12 11 10 13 6 17 14 18 21 23 23 20 20 19 20 18 18 19 18 16 16 15 15 14 14 14 14 12 11 11 11 10 10 10 10 13 15 14 13 13 13 13 13 13 13 13 13 13 12 10 9 10 9 11 9 11 11 10 9 10 10 11 11 10 10 10 10 10 9 9 8 7 7 6 6 3
8 1 1 2 2 4 2 3 5 2 4 8 8 8 12 10 8 11 11 10 15 14 9 10 6 14 16 15 21 23 23 21 19 21 19 16 13 14 14 13 13 13 12 13 12 12 14 14 13 10 11 12 11 12 10 10 11 14 12 13 14 13 12 12 13 13 12 12 12 11 10 7 5 6 6 7 10 8 10 10 10 11 10 10 10 10 10 9 9 9 8 8 7 6 4 4 3
5 3 2 3 4 2 2 6 5 2 4 7 3 6 9 12 11 10 12 12 10 11 12 11 9 13 15 19 22 23 22 22 21 21 18 16 12 14 13 13 13 13 13 12 12 13 12 12 13 12 10 11 11 9 8 8 9 10 9 9 9 9 10 11 9 7 9 7 12 8 5 5 4 3 5 8 5 8 9 11 11 10 10 10 9 10 10 9 9 8 7 7 6 5 5 2 2
7 4 4 6 2 3 4 6 12 9 5 5 5 2 1 10 11 11 12 14 13 13 10 10 11 15 19 22 23 23 23 22 22 20 20 19 15 17 14 12 13 14 13 12 11 13 11 11 12 12 12 11 12 10 9 8 9 7 8 8 7 9 9 8 5 6 5 6 5 3 3 3 4 4 4 5 6 9 9 10 11 11 9 8 8 8 8 9 8 7 6 5 4 3 2 0 2
8 5 4 6 2 4 4 5 10 13 13 6 10 10 5 7 10 12 10 14 12 11 10 10 13 21 22 23 24 23 22 22 21 21 21 19 18 17 16 15 15 13 14 12 12 11 12 11 12 12 11 11 9 9 9 8 7 7 6 6 6 6 6 6 6 6 5 5 5 3 2 2 4 3 6 9 10 7 7 11 12 11 10 8 8 6 7 8 8 7 5 4 3 2 2 2 2
6 7 7 2 5 1 3 3 5 13 12 6 3 2 6 11 12 13 13 12 11 10 9 12 17 22 24 24 24 22 22 22 21 20 20 19 18 15 14 14 14 13 13 11 10 11 12 12 12 11 11 10 9 9 9 8 7 7 7 6 6 6 6 5 5 5 5 6 7 5 5 5 6 5 5 5 4 5 5 4 5 5 4 4 7 4 4 4 3 3 3 3 2 1 3 3 3
5 9 7 5 6 2 6 7 5 7 9 4 6 3 4 4 4 11 15 11 7 9 11 9 17 22 25 25 24 22 23 23 22 20 20 20 19 17 15 14 15 14 13 11 11 13 12 12 13 11 11 10 8 8 8 8 8 6 6 6 6 6 6 6 6 5 6 7 6 6 5 6 6 6 5 4 4 4 4 4 3 2 2 3 1 3 4 4 2 2 3 3 1 1 1 3 3
9 9 7 5 4 3 4 9 9 10 11 5 9 11 10 8 8 4 6 10 10 10 14 13 16 22 22 23 23 23 23 23 22 21 20 21 19 18 16 15 15 14 12 13 12 11 12 13 13 12 11 8 9 9 8 7 6 6 4 4 6 5 5 6 6 6 6 6 6 6 7 6 6 5 5 4 4 3 3 3 3 2 2 2 1 2 4 4 1 1 1 0 1 2 2 1 0
10 7 11 8 8 11 8 7 9 15 6 9 6 10 3 8 6 12 3 11 12 13 15 9 19 20 22 22 22 23 23 23 22 20 20 20 19 19 17 17 15 14 12 14 13 12 12 15 13 12 10 9 8 9 9 8 6 6 5 4 6 6 6 7 7 6 6 5 5 5 2 3 4 5 5 4 5 3 3 3 3 2 1 2 2 2 3 3 3 1 0 0 1 1 1 2 0
10 11 10 12 12 9 9 9 11 7 17 12 9 6 3 6 7 8 4 3 11 14 17 18 18 20 20 21 22 22 22 21 21 20 18 15 17 18 18 14 15 15 15 15 13 13 15 14 14 13 11 10 8 8 9 7 8 8 7 7 5 7 5 6 7 6 7 7 6 4 2 6 2 2 8 2 6 4 4 3 1 3 1 2 3 1 2 3 2 1 1 1 1 2 1 1 1
10 13 11 11 14 10 12 12 16 12 8 13 7 3 2 1 5 9 7 2 11 12 10 15 17 20 20 20 21 21 20 21 21 21 18 16 17 18 18 16 15 16 16 15 14 13 13 15 15 14 13 10 9 9 6 7 6 7 8 6 7 8 8 7 6 5 4 6 8 3 7 6 1 1 8 5 6 4 3 4 2 1 1 1 1 1 2 1 4 3 3 3 2 1 1 1 0
9 9 13 12 8 19 18 13 8 12 14 18 16 12 6 10 6 1 2 8 8 4 14 16 18 19 19 18 19 19 21 21 22 19 18 17 17 16 17 16 16 15 17 16 14 13 12 15 15 14 12 9 9 9 6 6 6 6 6 10 6 5 4 4 5 5 5 5 8 10 9 9 7 4 4 4 5 4 3 4 4 3 1 1 1 2 2 3 2 2 1 1 2 2 1 0 1
13 10 11 9 11 13 10 8 15 13 4 5 11 13 10 10 6 6 5 5 7 11 18 16 17 17 17 18 18 18 17 18 17 19 20 20 15 15 16 14 16 16 16 16 13 12 15 15 16 15 14 11 9 10 7 7 7 7 6 5 5 4 5 4 4 3 4 4 4 5 6 4 8 9 10 8 7 4 3 3 3 2 1 2 1 2 2 1 0 2 2 2 1 1 1 0 2
12 12 12 11 12 11 12 13 13 8 7 13 9 11 8 9 9 14 12 9 10 13 15 17 16 16 17 17 16 15 16 17 16 17 17 16 16 15 17 16 16 15 13 16 15 15 17 15 14 14 13 11 11 12 9 7 7 6 5 5 4 5 4 4 2 5 3 4 3 4 5 6 3 6 5 4 8 9 9 11 8 4 2 3 4 2 2 2 2 1 1 1 2 1 1 2 2
11 13 11 11 11 12 14 14 13 13 5 8 9 5 7 8 11 13 14 14 19 11 11 14 14 15 15 16 15 16 16 16 17 16 15 15 17 16 17 17 17 15 12 12 16 16 14 12 12 12 12 13 10 11 7 7 6 6 5 4 5 4 4 2 5 4 5 4 4 4 4 6 9 5 3 3 3 3 3 4 8 10 9 9 5 2 2 1 1 2 3 3 4 3 3 2 3
10 9 10 10 9 10 13 14 14 14 13 15 12 5 7 10 10 12 13 10 15 11 14 14 15 15 15 15 15 15 17 15 17 19 18 18 17 15 17 17 18 17 12 14 17 16 15 13 11 11 12 12 10 9 9 6 6 6 5 5 5 4 3 3 3 4 5 5 5 4 4 6 8 6 3 3 3 2 3 3 3 6 10 10 11 9 7 6 6 6 3 4 2 1 1 3 2
9 8 10 10 11 9 12 14 16 14 14 12 10 7 7 12 12 15 13 11 12 13 12 15 14 13 15 14 15 15 16 16 17 19 18 19 18 15 17 17 18 17 16 14 15 15 15 15 13 13 14 12 9 9 8 7 7 6 4 6 5 5 4 5 5 6 6 6 5 5 5 6 6 8 7 5 4 2 2 3 3 2 4 4 2 4 3 4 3 3 3 4 4 4 3 3 2
9 11 10 11 11 10 12 12 16 17 12 14 14 5 4 11 12 13 14 16 13 11 10 13 14 15 15 15 14 14 16 17 16 18 18 18 16 16 15 17 15 17 16 17 15 14 13 17 12 16 15 13 11 12 7 7 4 4 5 5 7 4 4 4 4 5 5 4 6 6 5 5 5 4 6 5 3 4 3 3 2 3 2 2 2 2 3 4 3 4 3 2 3 4 4 5 3
9 10 11 11 12 10 10 8 15 16 14 12 15 8 5 1 15 14 14 14 14 11 12 11 12 10 13 14 14 15 16 16 17 16 19 18 14 17 16 14 16 17 15 17 16 15 14 16 13 14 13 13 10 9 7 7 5 4 4 4 5 4 6 5 4 5 5 5 4 6 7 5 5 4 5 6 5 3 3 2 3 3 3 2 2 2 2 2 3 3 2 2 2 3 7 5 6
9 10 11 11 13 14 11 9 11 13 12 11 10 11 8 7 8 15 14 14 15 14 14 12 14 15 13 13 14 16 16 17 17 16 19 19 18 18 16 16 15 17 14 17 15 13 11 13 10 12 12 12 11 8 8 7 7 5 4 4 5 3 3 2 2 4 5 5 6 7 6 6 6 5 4 6 5 4 3 2 2 3 2 3 3 2 2 4 4 2 3 1 4 3 2 2 3
13 11 11 11 11 12 12 13 12 13 15 10 12 12 11 11 11 14 14 13 14 13 14 11 12 12 12 14 14 14 15 17 16 17 19 18 16 17 16 16 14 15 14 14 12 14 10 14 10 11 11 12 10 8 7 7 6 5 6 5 5 3 3 3 4 2 5 6 7 7 5 6 5 3 4 7 6 4 3 3 3 3 2 2 2 2 3 3 4 5 3 1 3 0 1 2 2
17 15 13 12 12 13 13 15 12 14 12 14 16 15 5 2 9 16 14 13 12 13 14 11 8 5 4 9 14 15 16 16 16 18 19 18 19 16 16 16 14 15 14 15 13 16 12 14 12 14 12 11 10 9 8 8 7 6 6 7 7 6 3 3 3 5 5 7 7 6 5 6 6 5 4 4 6 6 4 3 3 2 2 1 1 2 3 4 3 3 3 1 1 3 2 2 3
17 16 15 12 13 12 14 15 13 18 13 10 10 9 6 5 11 13 14 15 14 13 14 12 11 9 6 3 7 15 15 14 18 16 17 19 17 19 16 15 16 16 13 17 14 16 12 15 13 13 12 11 11 10 8 8 7 6 6 6 7 7 4 5 3 3 5 7 7 6 4 5 5 5 4 5 4 6 4 4 4 3 2 1 1 2 3 2 3 2 2 0 2 1 1 2 3
16 13 11 11 10 11 12 17 15 11 13 8 18 12 9 11 11 7 11 15 14 15 15 14 13 12 6 4 4 9 14 14 17 18 18 18 20 20 15 15 16 17 17 18 13 15 12 13 11 13 11 12 10 10 8 7 8 6 6 5 7 6 5 5 6 3 4 9 7 6 4 5 5 4 4 5 4 4 6 5 4 3 3 1 0 1 2 2 1 4 2 1 1 1 2 2 2
13 12 12 11 11 11 8 14 18 13 11 10 14 16 14 14 9 12 15 14 13 14 15 15 12 12 9 9 7 7 12 15 18 18 20 19 19 18 16 16 15 15 15 16 16 15 13 11 10 13 12 12 10 10 9 8 8 7 6 5 5 6 7 5 4 5 2 9 7 6 3 4 4 5 5 5 4 6 6 5 4 4 4 2 1 1 1 2 2 3 2 1 2 2 2 3 3
13 16 13 12 13 13 14 7 13 14 14 11 11 12 11 10 12 13 13 13 15 15 15 14 11 10 8 4 4 6 16 15 16 19 19 19 18 20 16 15 17 16 17 17 17 17 13 15 12 13 11 12 11 11 10 8 8 7 6 4 4 1 7 5 4 4 3 4 8 5 5 5 5 4 5 4 4 5 6 5 4 5 5 4 3 2 2 1 3 2 1 1 1 3 2 1 3
11 16 17 15 13 15 14 16 14 11 13 12 10 8 9 17 21 18 10 12 13 10 13 14 13 11 7 3 6 6 12 15 13 18 18 19 19 18 16 17 18 17 16 17 17 18 15 14 13 12 11 10 12 12 11 9 8 7 7 6 6 4 3 7 5 5 5 3 6 8 7 7 6 4 4 4 4 4 5 6 5 5 5 5 4 3 2 1 2 1 1 1 3 2 2 2 3
11 9 14 18 19 15 15 17 13 10 10 11 14 12 9 10 17 17 15 17 16 14 12 15 14 12 12 11 9 10 14 18 17 16 17 19 19 18 19 18 19 18 18 17 17 17 15 15 14 14 12 10 12 12 12 9 9 7 8 7 6 6 5 5 4 4 5 6 4 6 7 6 5 5 5 4 4 4 4 5 6 6 5 4 4 3 4 3 2 2 2 1 3 2 2 2 2
11 10 10 14 17 18 17 15 14 11 12 12 15 13 10 9 12 18 23 20 20 20 17 14 14 15 13 11 13 13 17 14 12 17 17 18 18 19 20 20 19 19 19 18 18 17 16 16 16 14 12 12 11 12 12 11 10 9 8 7 6 6 6 5 6 4 3 5 5 4 8 6 6 4 3 4 4 4 4 3 4 5 6 5 5 5 3 2 2 2 4 5 2 1 2 1 1
9 12 14 12 13 17 18 16 13 12 12 10 11 13 11 9 8 14 18 20 20 19 19 18 18 17 15 14 15 17 20 20 18 14 19 18 17 19 18 18 19 19 18 18 17 16 15 16 16 14 13 12 12 15 12 12 11 11 10 8 7 7 6 6 5 4 2 2 5 3 3 7 7 6 3 4 4 4 5 4 4 3 3 5 4 4 5 5 5 4 4 3 3 2 2 2 1
13 14 14 11 7 8 9 12 14 12 11 12 12 14 11 10 12 9 16 17 20 22 23 24 22 21 19 16 18 19 16 12 17 18 15 16 18 18 19 19 20 18 18 16 17 17 16 15 16 16 15 13 12 15 13 13 12 11 10 9 9 8 6 6 5 6 4 3 2 4 2 5 7 6 5 4 5 4 5 4 4 5 4 4 5 4 4 6 6 4 3 4 1 0 1 1 1
9 12 14 13 9 7 8 9 9 10 14 13 15 14 12 11 10 12 12 15 16 18 17 18 19 20 20 21 20 17 15 15 14 16 17 16 17 18 19 20 18 18 15 18 18 17 18 17 17 17 16 13 14 15 15 15 13 12 11 11 10 10 9 7 7 7 6 4 4 4 5 3 6 6 6 5 5 5 4 4 5 5 4 3 3 2 2 4 4 4 4 5 4 4 2 1 1
11 9 10 10 10 5 7 8 8 11 12 13 16 16 15 15 8 9 12 12 17 22 22 22 24 22 22 19 20 20 20 18 18 17 19 19 16 17 18 19 19 17 16 18 18 17 17 16 17 18 16 15 14 15 15 15 13 13 12 12 11 10 9 8 8 7 8 7 6 5 5 5 4 5 5 6 6 7 5 5 4 4 4 3 3 2 1 2 3 5 4 4 3 3 2 1 2
13 13 11 12 9 6 9 8 11 12 12 9 14 16 15 16 11 13 10 11 13 19 21 25 25 26 24 23 21 17 18 19 17 15 15 15 13 14 17 16 16 15 14 17 19 19 18 17 19 19 18 16 16 16 17 16 14 13 13 13 11 10 10 9 8 7 8 7 7 6 6 6 6 5 6 6 6 7 5 6 5 3 4 4 2 4 3 2 2 2 5 5 4 3 2 2 2
15 15 13 12 11 10 8 9 8 9 13 15 13 14 16 11 12 19 21 13 14 16 24 24 28 25 24 22 19 19 18 19 18 17 15 15 14 13 14 15 16 16 18 18 20 18 16 17 18 20 19 17 16 16 17 16 15 14 13 12 11 10 10 9 8 8 8 7 7 7 7 7 7 7 6 6 6 8 6 7 5 5 3 3 3 3 2 1 1 1 2 3 4 3 3 3 3
13 11 13 11 10 9 10 8 10 11 9 11 19 15 10 14 8 12 17 17 10 9 15 22 26 25 25 24 23 22 21 19 17 16 18 17 15 14 14 14 14 17 19 20 18 17 16 17 18 20 18 18 17 17 16 17 15 14 13 12 11 10 10 9 8 8 7 8 8 8 7 7 7 7 7 6 5 6 7 7 7 6 4 4 4 3 3 2 2 2 1 2 0 4 4 2 3
12 12 11 13 13 9 11 7 10 10 10 12 11 12 9 10 4 13 12 14 16 12 12 18 21 22 25 23 21 20 19 19 18 17 17 17 16 13 11 14 16 16 17 18 19 16 17 17 19 20 20 20 19 18 17 17 16 14 14 13 13 12 10 10 8 8 7 8 8 8 8 7 7 7 7 6 7 5 7 7 8 7 6 6 5 5 4 4 4 3 2 2 2 2 4 4 2
9 12 15 13 9 12 11 14 17 15 11 11 7 10 12 9 12 11 15 16 17 15 13 17 22 22 23 19 19 19 17 17 17 18 17 16 17 12 9 9 15 19 19 18 17 17 18 17 18 19 19 18 19 19 18 17 16 15 15 15 14 13 13 13 11 12 13 9 8 8 8 9 7 6 8 7 7 7 6 8 8 8 7 7 6 6 6 5 5 4 4 3 3 3 3 3 3
12 13 12 11 15 13 11 10 8 11 11 8 10 13 10 12 11 11 13 17 18 18 14 19 26 27 22 20 19 19 20 19 19 17 14 15 13 11 10 7 10 18 20 19 18 18 16 17 20 22 20 20 19 19 18 17 16 16 15 16 15 14 14 14 12 12 11 9 9 8 8 8 9 8 8 8 7 9 6 8 7 8 8 7 8 8 6 6 5 5 5 5 4 3 2 3 3
19 14 7 13 12 15 11 7 12 11 11 8 9 11 13 11 9 10 16 15 14 16 17 15 21 26 27 22 23 22 20 18 17 18 14 14 12 11 13 12 13 12 14 16 15 18 16 17 20 23 23 23 22 19 18 15 17 14 14 16 17 15 13 13 12 11 11 10 12 10 10 9 9 8 7 6 9 9 8 7 7 8 7 8 7 7 7 6 5 4 5 5 4 4 3 3 3
21 19 18 12 11 12 12 11 8 8 10 8 11 12 9 10 10 13 14 16 14 15 18 17 16 28 21 18 21 20 18 17 17 17 16 15 13 14 13 12 14 14 12 10 11 17 22 21 21 21 21 19 18 19 17 17 18 16 15 15 15 14 13 13 12 11 12 12 11 12 12 12 10 9 8 8 9 9 9 9 9 9 9 9 9 7 8 7 6 6 5 5 6 6 4 3 4
15 17 15 12 11 9 11 11 13 10 9 9 8 11 8 6 8 11 14 15 18 16 14 14 18 23 22 21 21 17 18 18 18 19 18 18 18 18 15 12 9 5 3 2 8 15 21 21 21 22 22 22 22 21 19 17 16 15 16 17 17 15 16 14 14 13 13 12 11 11 12 10 9 9 9 9 9 9 10 10 10 10 11 9 8 8 7 7 6 6 5 5 4 7 6 5 4
15 14 15 13 12 11 13 14 12 14 11 6 8 10 7 11 8 8 9 11 13 14 7 11 15 20 20 22 21 21 21 21 21 20 20 20 18 17 15 13 9 9 9 10 13 17 23 24 21 22 22 21 22 21 18 17 16 15 18 18 18 16 15 13 16 14 14 13 12 11 10 10 11 10 10 11 10 10 10 11 11 10 9 10 9 9 9 7 8 7 7 6 5 5 7 6 5
Wind_Direction
190 199 194 208 215 221 235 208 258 197 217 237 225 201 212 148 206 140 149 146 149 142 107 120 114 115 215 119 102 69 48 65 17 184 119 126 136 151 155 139 135 131 127 127 130 135 135 138 136 132 130 128 127 126 124 121 120 121 119 116 113 111 111 111 110 109 109 106 104 103 102 104 103 102 100 103 108 106 97 95 94 92 99 104 106 106 106 104 97 90 81 82 78 80 81 76 77
185 198 197 216 209 219 217 198 266 236 230 242 227 212 178 157 206 160 150 154 148 140 131 122 132 117 101 109 103 82 60 63 82 91 97 125 142 147 143 138 136 131 130 132 135 135 135 133 137 131 130 128 125 122 121 119 118 117 117 115 113 111 113 113 112 113 112 111 109 109 108 107 105 102 104 101 99 101 101 100 101 100 100 103 104 107 107 107 105 102 98 95 97 91 85 87 84
187 204 171 217 210 249 62 281 242 192 230 239 183 190 94 167 198 168 136 170 154 140 135 127 150 115 117 100 88 85 86 95 98 100 114 137 131 148 143 137 135 133 134 139 134 130 129 131 129 129 126 126 125 121 119 118 116 116 115 115 115 115 115 115 115 114 114 112 110 109 109 109 106 105 104 100 102 103 103 105 100 99 103 107 110 108 108 107 107 106 105 103 97 91 91 89 95
170 220 202 191 242 186 257 215 247 249 257 295 218 153 177 159 209 134 152 215 161 151 136 149 112 87 98 93 93 101 109 102 110 120 127 147 140 143 138 135 133 134 133 130 129 128 125 127 126 128 129 126 124 121 118 118 117 116 116 116 117 118 117 116 116 116 117 116 114 110 110 109 111 110 109 109 108 103 101 99 99 102 104 107 107 107 107 108 108 107 103 96 91 91 89 88 85
277 236 208 199 258 228 276 254 274 313 254 167 111 189 158 190 172 139 173 174 161 152 112 97 104 89 67 91 104 102 107 110 115 119 129 135 138 139 137 136 136 132 128 126 126 124 128 127 129 130 127 126 124 121 121 118 118 118 117 115 117 117 116 116 117 117 116 115 114 113 112 112 111 111 110 112 108 104 101 99 97 99 102 103 103 109 111 109 105 104 100 96 95 97 99 97 92
240 260 200 2 236 47 254 265 249 241 248 255 232 169 160 166 157 157 159 171 137 80 113 132 117 114 92 95 98 111 132 127 126 119 130 137 137 136 135 139 132 127 123 123 122 122 128 130 128 128 125 125 122 122 120 119 118 118 116 118 118 117 118 120 119 117 117 116 113 115 113 114 114 111 110 108 107 105 102 101 102 102 105 108 107 97 97 101 107 100 98 93 90 89 90 92 89
201 208 206 112 209 234 256 271 266 261 252 326 27 170 165 150 155 164 155 148 116 121 133 93 101 105 94 97 106 117 113 123 124 130 133 137 136 138 140 135 128 125 125 123 121 123 127 131 131 129 128 127 125 125 125 122 120 120 119 120 119 119 121 122 118 115 115 113 113 113 114 113 114 113 113 109 107 106 105 104 105 104 104 104 107 113 112 106 99 100 101 99 96 89 86 85 83
229 234 181 237 262 207 247 256 265 239 305 338 321 176 177 156 165 148 177 144 142 124 126 142 116 98 97 106 98 109 127 119 121 128 129 133 138 140 138 134 127 127 123 123 122 123 130 134 134 131 130 128 128 127 126 124 122 122 122 121 119 122 120 118 118 115 115 115 116 115 115 116 116 116 114 109 109 108 108 106 105 107 103 102 104 106 105 104 102 103 105 105 100 91 85 83 82
217 235 86 301 272 273 275 273 281 188 258 342 278 203 172 166 185 142 151 105 89 140 127 127 122 107 109 114 107 124 112 121 124 132 137 139 139 139 135 132 132 128 125 123 124 127 129 133 131 130 130 128 128 128 126 125 125 126 127 126 127 125 120 121 118 119 117 117 115 114 116 115 115 115 111 111 109 109 108 107 107 106 106 104 104 104 105 107 107 107 107 105 101 96 96 92 86
219 224 275 260 336 292 288 305 258 357 18 310 271 226 174 185 153 121 133 126 141 123 134 121 120 105 110 102 109 117 120 123 128 131 134 136 136 135 136 130 128 128 126 127 127 126 128 131 130 130 129 129 128 127 127 128 127 126 125 124 123 121 122 122 123 120 120 115 115 119 119 117 115 110 110 111 112 111 110 110 115 114 108 112 106 104 104 106 109 108 107 104 99 100 102 101 90
238 67 348 319 283 321 339 340 318 18 16 359 298 281 261 201 141 89 99 126 137 116 118 118 124 120 115 106 99 111 122 130 134 135 137 134 134 138 130 127 128 128 131 130 127 125 129 130 130 129 128 129 129 127 127 126 124 121 119 120 122 121 123 124 123 124 122 117 118 121 118 116 114 113 115 112 112 112 111 114 118 120 113 112 112 108 107 109 109 110 110 107 109 108 106 102 92
245 157 81 295 304 298 327 298 312 351 185 186 237 251 209 202 111 143 140 127 141 128 135 151 114 115 109 113 125 130 133 137 133 136 136 134 136 132 125 128 132 130 130 127 127 129 128 130 128 129 128 129 130 127 126 124 123 122 123 124 125 126 125 125 125 121 119 121 121 119 117 116 115 117 117 118 116 115 113 114 121 122 118 115 110 108 107 106 107 108 107 105 106 108 103 94 88
257 127 31 301 298 286 317 294 266 340 183 203 169 220 169 178 142 152 167 148 150 128 131 120 128 127 120 119 131 137 140 135 138 137 136 137 133 130 128 130 131 127 127 129 127 128 131 131 129 131 130 129 129 127 126 127 126 121 127 127 124 127 129 128 124 122 123 122 121 120 118 118 118 120 119 118 118 117 119 119 116 122 124 120 114 110 110 109 106 106 109 109 106 105 104 99 94
230 82 105 303 257 296 311 291 188 152 229 195 205 178 135 198 144 158 154 137 127 131 138 132 143 122 110 123 138 143 138 142 140 139 138 134 133 133 128 131 127 127 128 128 128 132 132 132 132 131 133 131 129 128 128 129 128 130 132 126 129 130 130 128 129 128 127 125 121 121 122 120 123 123 122 121 121 120 120 121 120 125 121 121 117 114 109 108 108 108 108 108 108 104 100 97 94
237 137 146 241 293 329 237 263 205 180 184 175 219 177 133 251 132 149 145 135 134 140 144 143 124 135 144 146 145 148 144 145 143 142 137 135 139 130 132 128 126 128 128 131 133 133 135 132 132 137 137 133 134 131 131 130 130 130 130 131 131 131 131 132 130 130 129 125 121 119 121 123 124 124 122 121 122 123 122 126 123 120 121 122 118 114 108 107 108 108 110 113 115 114 106 107 109
192 157 304 304 314 268 247 247 201 211 146 177 173 111 168 174 136 144 167 137 132 142 173 148 164 147 148 145 146 142 145 144 147 140 137 139 134 131 129 130 131 127 129 134 134 135 133 133 137 140 139 139 140 136 134 133 132 132 133 135 133 135 135 133 132 131 130 125 121 125 125 125 123 119 122 124 126 127 129 125 129 126 128 128 123 118 116 118 116 116 115 116 113 113 120 116 128
124 224 280 236 311 264 279 229 191 222 140 174 146 169 193 122 112 124 142 134 140 151 163 153 191 140 153 142 141 141 143 144 145 139 139 136 135 133 130 136 131 133 132 135 135 136 134 137 141 140 142 145 138 134 136 135 137 136 136 136 138 139 138 135 133 131 128 127 130 133 139 126 113 120 127 127 131 126 121 128 129 129 129 128 128 126 124 123 119 116 112 109 112 115 119 126 119
189 253 286 275 243 277 280 311 280 20 201 168 178 174 111 127 148 124 133 134 146 156 165 159 170 141 139 137 139 142 143 148 145 142 142 139 141 137 141 137 138 141 138 139 141 139 138 140 142 142 141 140 136 137 137 137 141 143 140 143 140 142 142 139 139 136 136 138 135 143 129 121 118 125 122 131 122 126 134 132 130 134 133 137 135 132 131 129 123 119 121 119 118 123 145 153 164
209 205 251 268 287 13 355 319 305 291 187 200 173 89 233 145 145 148 144 151 160 163 136 145 148 132 132 140 143 144 148 149 146 145 145 147 145 144 142 141 138 142 142 143 145 143 142 141 144 142 140 144 143 141 136 137 146 140 142 147 146 149 149 141 129 140 137 143 125 116 107 141 139 135 134 140 130 131 129 133 132 132 135 134 137 131 129 124 119 120 122 128 124 146 200 237 177
202 209 227 266 91 298 328 313 294 300 281 202 170 156 162 160 154 155 149 150 152 144 147 162 154 139 143 145 148 148 152 149 148 148 149 150 148 148 146 145 141 144 144 147 145 145 146 146 145 141 146 146 148 139 138 144 146 141 148 151 149 150 149 143 149 148 148 142 130 134 148 171 143 147 148 138 134 129 135 136 139 139 142 146 142 135 126 118 122 121 122 137 165 215 132 42 345
155 214 232 213 139 6 120 251 288 290 270 251 151 20 161 193 171 142 170 152 150 151 169 164 156 145 146 148 151 153 153 151 151 153 151 150 151 148 149 145 145 145 146 142 144 148 147 144 142 141 143 150 147 139 143 147 149 149 152 162 153 159 158 153 152 165 156 159 155 168 179 181 155 162 162 159 141 138 142 138 138 140 142 143 158 132 137 123 120 161 153 186 219 168 114 155 247
209 207 250 195 154 144 241 207 223 253 273 134 211 184 255 229 164 162 179 153 152 173 154 195 153 148 149 152 153 158 155 154 156 157 155 154 155 150 152 144 143 143 144 144 149 146 150 146 143 144 149 154 151 141 145 149 150 149 158 161 157 164 155 166 168 173 172 178 165 171 183 192 158 156 153 147 130 122 134 140 94 34 128 143 68 100 63 114 166 187 196 206 143 233 130 181 181
239 226 200 132 193 193 229 216 189 180 222 258 206 171 232 166 142 75 255 138 154 148 158 171 142 150 151 151 155 161 159 157 159 159 158 156 156 154 153 149 149 146 151 147 148 150 148 149 146 150 150 156 152 136 145 148 150 143 149 177 163 161 163 172 174 182 181 174 167 166 190 178 148 147 153 150 110 83 129 110 95 70 27 74 67 63 125 117 151 121 304 198 170 220 194 132 50
246 256 119 170 187 232 216 240 238 163 197 245 259 165 251 90 119 166 100 123 155 144 147 176 157 153 156 155 159 163 162 160 160 161 159 158 157 158 155 154 150 144 150 147 152 152 155 151 150 151 146 155 151 148 150 154 149 128 164 197 173 179 170 178 183 184 178 159 159 165 245 60 17 157 149 137 110 124 90 89 95 91 52 46 42 61 95 103 114 180 217 200 256 275 162 61 92
219 243 210 160 191 203 228 231 258 211 163 212 243 148 199 126 187 108 134 139 145 150 157 167 150 155 158 158 160 164 163 161 160 160 160 159 158 159 154 155 149 149 151 152 152 155 156 149 155 153 153 158 152 153 153 153 147 154 164 188 189 178 179 188 181 170 164 150 137 135 161 116 166 337 64 323 126 117 97 81 51 67 117 151 114 109 109 109 121 156 209 212 285 272 30 43 350
229 252 262 189 176 181 215 203 231 221 96 156 180 127 87 2 265 107 303 187 149 146 167 153 159 155 159 163 161 164 166 164 162 162 162 159 162 162 153 159 150 158 151 154 154 155 156 151 158 156 156 161 155 161 155 156 157 162 159 176 202 182 183 178 148 166 160 144 131 141 75 40 39 145 141 190 114 103 120 120 123 106 353 13 95 100 88 154 167 167 204 200 174 177 189 112 242
267 232 217 247 243 161 219 206 237 266 166 174 158 148 132 175 215 29 266 283 139 176 181 167 160 159 161 166 164 165 170 165 167 160 161 164 162 164 156 160 155 155 152 155 154 160 152 155 157 156 155 155 161 155 159 159 158 177 185 168 169 183 158 129 176 158 161 158 134 133 158 156 128 138 77 122 123 126 142 155 125 135 130 188 174 192 186 193 190 168 186 171 138 181 139 256 240
257 267 288 250 225 245 211 197 225 193 164 145 137 135 158 145 154 158 155 182 303 214 161 167 157 161 162 167 165 166 172 165 170 164 163 170 160 165 162 160 158 154 157 157 154 162 155 161 155 157 156 161 160 159 159 170 173 188 153 151 166 160 129 176 172 138 68 87 115 134 121 125 142 152 161 144 110 109 52 26 7 83 94 247 189 232 186 138 147 229 238 149 112 40 60 125 253
265 267 261 248 252 245 238 226 197 223 164 162 141 133 148 176 137 152 175 151 193 231 150 162 165 159 163 168 165 167 175 166 174 165 168 170 156 170 164 159 160 156 161 156 155 163 156 164 150 158 159 158 169 160 160 168 163 152 152 161 160 137 174 178 120 104 141 111 107 118 111 107 126 85 80 110 140 147 160 150 149 116 72 325 327 274 246 134 176 231 225 120 83 18 22 225 245
240 245 253 265 264 248 226 215 222 184 204 185 161 182 170 179 150 158 164 162 185 177 156 160 166 166 160 166 170 168 175 169 181 168 169 168 159 171 162 164 159 158 163 152 158 163 158 160 152 158 158 161 174 150 155 161 158 153 164 162 131 154 179 135 133 154 143 125 125 109 109 86 71 53 48 77 94 116 131 142 133 141 135 159 189 231 294 316 39 274 224 170 156 167 203 196 228
262 252 233 251 252 247 223 205 203 207 177 171 184 234 165 166 165 164 163 172 150 182 170 162 167 166 165 169 165 176 174 176 179 172 167 169 165 170 162 168 163 156 164 156 162 161 163 155 157 155 156 162 166 141 156 156 151 153 168 145 140 186 143 142 139 134 137 140 129 120 111 96 105 127 134 85 94 142 141 128 127 125 145 163 155 188 170 171 215 190 212 143 170 211 214 226 201
231 243 233 229 239 249 250 196 194 206 167 177 190 231 157 173 174 161 166 164 166 188 168 173 167 166 166 172 163 177 177 177 181 176 172 170 165 169 166 165 171 153 165 158 164 160 165 151 160 152 158 161 155 143 161 155 159 163 162 137 147 201 155 168 149 163 151 143 135 129 119 120 147 143 150 160 145 149 119 117 112 155 146 157 136 133 120 156 154 187 156 151 170 157 219 201 204
229 230 238 229 221 237 259 216 185 195 164 174 189 203 176 164 169 165 163 168 184 178 169 169 166 172 169 174 167 178 173 179 185 179 175 170 168 168 166 162 175 156 164 157 167 157 165 147 164 155 159 166 150 159 147 150 146 157 138 147 157 204 168 158 167 153 144 138 135 133 124 133 134 153 134 143 143 128 120 118 137 132 86 106 141 116 143 166 173 152 176 180 144 153 194 209 201
221 214 237 241 236 215 241 232 177 188 171 174 189 229 206 127 159 169 168 175 173 177 170 171 166 180 181 176 174 176 173 179 185 179 181 170 167 168 167 160 173 159 160 159 170 158 167 149 166 155 158 164 145 156 139 151 140 152 144 137 153 190 165 167 162 148 141 120 127 127 140 143 137 142 146 120 96 120 108 115 128 142 115 128 136 122 190 153 110 103 83 294 259 169 195 177 189
220 207 219 233 245 252 236 229 157 185 151 168 180 226 203 182 174 161 169 171 173 182 178 180 180 183 177 181 173 179 174 180 186 180 180 173 166 173 167 162 175 161 163 163 171 153 160 153 158 149 154 161 146 153 138 146 138 153 146 144 148 210 133 179 153 145 118 126 131 134 143 139 140 162 124 129 125 125 137 147 137 127 155 145 149 173 133 108 88 90 103 12 282 242 155 158 153
248 226 219 230 237 227 234 238 165 194 160 159 195 213 211 189 150 162 169 181 183 182 186 178 177 188 183 188 178 179 179 180 184 184 179 176 170 171 171 165 172 164 167 156 169 157 153 159 148 146 153 156 145 151 147 149 149 167 158 149 152 196 159 158 151 126 135 118 137 141 151 137 139 141 156 135 139 142 145 123 115 126 159 173 145 142 134 127 135 136 130 143 263 286 281 114 100
269 275 257 235 234 245 241 243 181 180 196 181 194 213 243 196 184 176 175 177 187 184 183 179 183 139 185 202 182 181 179 184 181 187 181 176 175 170 171 165 172 163 168 151 166 164 152 165 149 151 156 154 151 157 162 158 158 170 159 158 158 172 173 147 151 158 158 143 143 138 153 138 146 165 155 137 130 132 119 110 110 100 85 32 360 72 61 90 111 118 121 179 279 231 150 130 69
259 269 275 267 235 236 240 247 211 177 200 175 201 176 181 236 261 185 170 178 183 194 182 179 179 181 187 251 238 185 179 184 180 187 182 181 176 173 170 166 176 162 167 155 168 169 155 167 153 155 154 155 159 164 162 161 160 166 162 165 164 160 173 144 172 184 157 128 129 134 164 143 155 155 152 128 131 128 130 130 132 129 102 53 320 57 90 87 81 98 107 192 269 6 110 86 97
257 260 267 274 277 268 240 245 248 191 181 191 161 174 170 209 222 129 180 186 182 191 194 185 177 174 166 196 283 244 186 185 183 184 187 182 175 177 169 172 175 167 168 162 167 168 158 172 155 158 159 157 164 164 168 161 161 167 168 179 174 152 170 166 173 181 159 137 140 145 155 144 155 157 155 145 151 132 138 139 145 134 114 118 254 106 18 96 82 106 108 128 4 290 74 102 122
252 248 249 249 258 264 226 231 258 220 201 194 194 178 178 184 214 206 213 198 192 194 193 177 166 164 168 184 167 312 225 187 184 186 186 184 175 179 173 176 173 170 170 163 171 169 164 173 163 160 163 158 164 163 171 163 165 166 170 180 207 158 162 174 169 147 207 134 145 149 151 147 163 169 168 162 171 147 138 148 142 141 141 167 174 164 211 133 110 87 160 150 328 245 162 140 130
228 248 252 247 248 254 278 255 222 244 193 205 208 223 166 175 184 210 213 201 202 199 187 156 152 147 136 130 123 175 264 203 193 184 190 184 182 180 177 175 175 174 171 168 174 173 172 173 165 163 167 159 166 163 170 163 163 164 170 183 200 283 142 155 151 142 174 139 141 158 163 164 177 184 162 172 166 149 145 146 150 155 147 166 163 180 226 156 124 143 71 68 273 277 120 112 131
239 229 241 255 257 263 265 273 279 236 214 181 214 245 223 170 180 190 190 210 190 183 174 158 155 143 130 148 201 187 261 245 198 187 189 185 186 179 176 174 181 176 174 172 176 173 173 171 165 166 169 160 168 165 168 166 166 160 168 168 171 157 146 140 156 161 158 179 179 160 159 179 172 192 158 175 162 156 152 153 151 152 165 176 166 188 172 139 156 143 148 119 270 273 48 163 109
246 232 223 242 259 274 273 277 274 261 240 188 185 228 238 211 189 172 187 193 197 183 177 174 153 150 160 181 194 193 225 200 198 195 190 191 189 182 180 180 184 183 177 173 175 174 174 168 168 170 170 165 169 164 168 165 161 163 171 170 170 165 161 144 153 180 162 155 233 153 147 170 164 190 180 178 171 152 166 158 158 162 170 171 176 172 185 175 163 154 153 169 247 295 4 55 96
241 265 241 219 243 251 262 272 277 281 272 229 210 203 240 237 211 188 182 191 195 181 165 176 169 169 175 184 191 208 217 203 205 193 192 194 186 187 185 183 185 186 176 177 177 175 174 168 170 173 171 170 169 166 169 168 161 165 169 176 169 169 173 154 163 194 175 155 180 192 150 162 162 188 185 162 181 156 166 169 175 170 169 178 177 183 185 172 184 168 163 198 223 308 302 94 135
242 238 255 256 221 230 243 257 264 271 288 253 239 210 210 229 249 192 185 186 193 170 177 177 178 175 177 188 203 202 210 194 192 198 192 195 189 189 186 185 187 185 179 180 180 173 172 167 168 174 174 173 168 167 169 168 166 167 171 174 171 175 175 165 163 181 195 182 155 180 152 153 156 170 199 170 182 168 167 170 180 183 188 171 192 196 185 174 186 192 152 142 151 174 261 85 57
234 258 275 275 292 304 274 246 248 259 267 266 244 223 236 220 203 220 181 184 191 186 177 173 171 179 179 191 197 198 203 180 187 195 199 197 190 189 187 186 187 190 183 181 180 175 173 167 170 175 176 176 170 169 170 170 169 170 172 177 175 175 177 173 170 173 191 173 188 150 172 128 155 163 184 189 170 189 168 177 179 185 202 192 187 206 188 158 180 145 168 107 117 15 312 137 164
250 231 251 262 251 226 239 257 260 253 249 245 255 251 249 256 221 194 213 192 187 184 176 171 171 174 184 187 192 185 194 191 196 187 188 202 198 190 189 189 188 190 182 180 183 178 178 174 172 178 177 176 172 171 172 173 172 174 175 178 180 177 179 177 174 168 174 171 183 164 166 175 153 160 182 185 186 184 188 178 194 185 201 193 182 258 194 164 165 162 152 155 164 152 264 175 261
233 237 232 245 238 213 255 259 240 249 246 235 239 248 245 251 233 246 211 195 193 162 177 166 169 177 183 189 188 186 189 189 194 194 190 194 200 196 191 188 188 189 185 181 186 180 178 175 175 177 177 177 174 172 175 176 176 178 178 179 181 181 178 182 180 172 170 179 179 179 168 172 171 162 185 173 193 192 180 184 204 186 181 203 172 242 225 222 187 155 139 137 170 138 189 159 229
221 232 231 225 225 204 221 215 233 232 241 228 234 240 250 244 259 262 244 194 203 165 174 170 170 178 181 183 187 184 182 187 188 188 189 193 198 196 190 186 180 189 193 183 187 186 180 177 177 177 179 179 175 173 177 176 178 180 180 181 182 180 182 182 180 179 169 176 175 181 174 178 172 190 186 182 186 194 170 176 193 201 173 202 185 174 224 262 30 89 137 156 155 162 176 188 202
218 215 217 218 223 219 224 217 237 244 237 235 241 231 244 259 234 244 263 257 209 196 168 172 175 177 180 185 186 184 184 185 187 187 190 194 194 194 191 187 183 186 195 186 188 189 181 182 178 181 181 179 176 176 177 178 181 179 179 180 181 180 183 183 180 185 177 174 174 182 186 181 180 190 192 191 186 189 177 173 180 192 200 186 176 181 182 198 105 2 148 161 166 160 176 192 204
217 220 214 223 226 225 221 226 222 228 246 223 214 237 232 226 220 231 241 252 262 209 188 170 175 179 173 181 182 186 184 184 184 186 189 188 191 193 183 182 185 188 196 194 188 187 179 180 178 182 180 181 178 178 178 179 180 180 179 180 181 180 183 183 185 185 185 178 180 186 188 185 185 187 198 188 197 179 176 168 174 186 196 185 171 173 197 169 170 169 335 136 21 155 187 198 193
206 212 223 230 223 222 253 233 230 232 230 233 212 224 223 239 228 224 233 227 236 244 174 153 166 174 166 174 181 182 187 179 180 189 190 188 188 196 191 184 185 190 195 198 190 187 183 180 180 183 182 181 181 179 181 180 181 179 179 180 182 181 180 182 184 185 188 186 182 187 188 192 187 181 190 187 191 198 174 172 171 183 184 186 175 184 189 184 183 182 178 175 204 208 169 187 230
197 199 216 223 226 238 245 261 275 285 258 243 227 222 214 238 251 223 216 217 215 227 216 163 158 154 163 172 175 183 182 179 182 185 189 182 187 183 177 186 187 190 193 198 191 190 186 180 180 183 183 183 183 182 181 181 178 179 181 181 181 180 181 184 187 188 194 191 187 187 189 195 194 182 179 190 184 197 176 175 173 185 185 183 182 184 189 193 177 180 182 194 198 224 179 187 193
266 218 212 220 235 250 236 251 250 245 260 252 222 232 221 202 224 206 219 216 211 207 228 162 169 162 165 170 178 182 181 185 186 184 180 176 171 169 174 177 202 195 192 196 194 191 187 182 181 182 183 183 184 181 182 180 179 180 181 183 182 183 184 188 189 190 193 191 190 189 195 190 196 198 188 189 186 183 188 177 174 183 185 187 185 186 188 198 182 182 186 187 196 216 214 175 195
244 256 177 208 194 215 232 260 240 248 237 253 242 232 246 212 206 194 210 219 212 197 211 206 165 157 171 172 173 178 185 184 180 186 174 170 168 175 181 188 200 195 189 196 195 193 190 185 185 185 185 185 183 182 181 180 179 181 182 183 184 183 185 188 189 188 190 194 196 192 198 194 193 199 192 182 178 179 186 183 181 184 183 186 188 186 183 190 188 190 194 183 194 195 208 200 190
240 250 262 253 247 219 216 219 260 257 265 241 241 245 232 220 228 195 209 204 216 211 201 213 154 156 163 165 175 176 177 181 185 189 182 176 170 175 179 181 191 197 197 197 209 206 201 193 186 188 187 184 183 184 181 181 182 180 179 180 183 184 184 186 186 184 189 194 196 195 196 198 191 194 194 189 178 181 183 190 191 192 191 189 189 194 182 185 188 191 201 200 186 183 191 214 217
205 241 243 239 253 279 242 212 224 233 246 258 263 228 238 245 222 200 204 200 204 222 202 186 150 162 163 174 170 171 180 182 184 187 188 182 182 185 180 178 183 142 72 351 212 224 213 194 190 188 185 185 186 188 184 183 182 182 175 180 182 183 186 185 187 188 189 192 196 195 193 200 189 193 190 192 182 181 182 190 194 195 195 188 188 190 184 180 188 188 208 207 201 177 189 194 206
211 216 241 235 233 229 222 227 208 224 234 247 260 260 234 206 229 244 208 174 197 208 222 195 168 173 172 173 175 177 184 186 186 189 188 188 182 176 170 178 181 165 144 193 237 227 215 204 193 189 188 188 187 187 184 182 185 182 179 180 183 182 184 184 188 188 191 191 194 195 192 194 196 189 190 192 187 183 187 187 195 193 197 186 185 181 186 183 183 192 200 202 219 188 181 194 197